FW8241 Weather Reports


time (UTC)temp
C
wind
direction
speed
KPH
gust
KPH
rain 1hr
cm
rain 24hr
cm
rain mn
cm
humidity
%
barometer
mb
20260507052532 17 5 3.2 4.8 0.03 0.13 0.10 95 863.4
20260507052032 17 5 3.2 6.4 0.03 0.13 0.10 95 863.4
20260507051532 17 5 3.2 6.4 0.03 0.13 0.10 96 863.3
20260507051031 17 5 3.2 4.8 0.03 0.13 0.10 96 863.3
20260507050531 17 5 3.2 6.4 0.03 0.13 0.10 96 863.3
20260507050057 17 5 3.2 6.4 0.03 0.13 0.10 95 863.3
20260507045531 17 5 3.2 6.4 0.03 0.13 0.10 95 863.2
20260507045031 17 5 3.2 8.0 0.03 0.13 0.10 96 863.2
20260507044540 17 5 4.8 8.0 0.03 0.13 0.10 96 863.0
20260507044030 17 5 1.6 6.4 0.03 0.13 0.10 96 862.9
20260507043530 17 5 3.2 6.4 0.03 0.13 0.10 95 862.8
20260507043030 17 5 4.8 6.4 0.00 0.10 0.08 96 862.8
20260507042530 17 5 4.8 6.4 0.00 0.10 0.08 96 862.8
20260507042033 17 5 4.8 6.4 0.00 0.10 0.08 96 863.1
20260507041530 17 5 3.2 4.8 0.00 0.10 0.08 96 863.3
20260507041032 17 5 3.2 4.8 0.00 0.10 0.08 96 863.4
20260507040530 17 5 1.6 4.8 0.00 0.10 0.08 96 863.5
20260507040032 17 5 1.6 4.8 0.00 0.10 0.08 96 863.4
20260507035528 17 5 1.6 4.8 0.00 0.10 0.08 96 863.4
20260507035031 17 5 1.6 6.4 0.00 0.10 0.08 96 863.3
20260507034534 17 5 3.2 6.4 0.00 0.10 0.08 95 863.2
20260507034029 17 5 3.2 4.8 0.00 0.10 0.08 95 863.2
20260507033526 17 5 3.2 4.8 0.00 0.10 0.08 95 863.2
20260507033031 17 5 3.2 6.4 0.00 0.10 0.08 95 862.9
20260507032524 17 5 3.2 6.4 0.00 0.10 0.08 95 862.8
20260507032024 17 5 3.2 6.4 0.00 0.10 0.08 95 862.7
20260507031531 17 5 3.2 6.4 0.00 0.10 0.08 95 862.6
20260507031028 17 5 3.2 6.4 0.00 0.10 0.08 95 862.7
20260507030526 17 5 3.2 6.4 0.00 0.10 0.08 95 862.7
20260507030033 17 5 3.2 6.4 0.00 0.10 0.08 95 862.8
20260507025523 17 5 3.2 6.4 0.00 0.10 0.08 95 862.8
20260507025023 17 5 3.2 6.4 0.00 0.10 0.08 95 862.7
20260507024523 17 5 3.2 4.8 0.00 0.10 0.08 95 862.6
20260507024022 17 5 3.2 4.8 0.00 0.10 0.08 95 862.5
20260507023522 17 5 3.2 6.4 0.00 0.10 0.08 95 862.5
20260507023022 17 5 3.2 6.4 0.00 0.10 0.08 95 862.4
20260507022522 17 5 1.6 6.4 0.00 0.10 0.08 95 862.4
20260507022023 17 5 1.6 6.4 0.00 0.10 0.08 95 862.4
20260507021540 17 5 3.2 4.8 0.00 0.10 0.08 95 862.3
20260507021022 18 5 3.2 4.8 0.00 0.10 0.08 95 862.3
20260507020522 18 5 1.6 4.8 0.00 0.10 0.08 95 862.4
20260507020024 18 5 1.6 4.8 0.00 0.10 0.08 95 862.4
20260507015521 18 5 3.2 4.8 0.00 0.10 0.08 95 862.4
20260507015021 18 5 3.2 4.8 0.00 0.10 0.08 95 862.4
20260507014523 18 5 1.6 4.8 0.00 0.10 0.08 95 862.5
20260507014025 18 5 3.2 4.8 0.00 0.10 0.08 95 862.5
20260507013520 18 5 3.2 4.8 0.00 0.10 0.08 95 862.5
20260507013020 18 5 3.2 4.8 0.00 0.10 0.08 95 862.4
20260507012522 18 5 3.2 4.8 0.00 0.10 0.08 95 862.3
20260507012020 18 5 3.2 4.8 0.00 0.10 0.08 95 862.3
20260507011528 18 5 0.0 0.0 0.00 0.10 0.08 95 862.2
20260507011020 18 5 0.0 3.2 0.00 0.10 0.08 95 862.2
20260507010520 18 5 0.0 3.2 0.00 0.10 0.08 95 862.1
20260507010029 18 5 1.6 4.8 0.00 0.10 0.08 95 862.0
20260507005520 18 5 1.6 4.8 0.00 0.13 0.08 95 862.0
20260507005024 18 5 1.6 4.8 0.00 0.13 0.08 95 862.0
20260507004521 18 5 0.0 0.0 0.00 0.13 0.08 95 861.9
20260507004019 18 5 0.0 4.8 0.00 0.13 0.08 95 861.8
20260507003519 18 5 1.6 4.8 0.00 0.13 0.08 95 861.6
20260507003019 18 5 0.0 0.0 0.00 0.13 0.08 95 861.8
20260507002519 19 5 0.0 1.6 0.00 0.13 0.08 95 861.8
20260507002019 19 5 0.0 3.2 0.00 0.13 0.08 95 861.6
20260507001519 19 5 1.6 3.2 0.00 0.13 0.08 95 861.5
20260507001018 19 5 1.6 3.2 0.00 0.13 0.08 95 861.3
20260507000522 19 5 0.0 4.8 0.00 0.13 0.08 95 861.4
20260507000018 19 5 0.0 8.0 0.00 0.13 0.08 95 861.8
20260506235517 19 5 4.8 8.0 0.00 0.13 0.08 95 861.9
20260506235020 19 5 0.0 1.6 0.00 0.13 0.08 95 861.7
20260506234517 19 5 0.0 0.0 0.03 0.13 0.08 95 861.3
20260506234017 19 5 0.0 0.0 0.03 0.13 0.08 95 861.1
20260506233518 19 5 0.0 0.0 0.03 0.13 0.08 95 861.1
20260506233017 19 5 0.0 4.8 0.03 0.13 0.08 95 860.9
20260506232520 19 5 0.0 6.4 0.03 0.13 0.08 95 860.9
20260506232016 19 5 1.6 6.4 0.03 0.13 0.08 95 860.9
20260506231519 19 5 1.6 6.4 0.03 0.13 0.08 95 860.9
20260506231015 19 5 0.0 12.9 0.03 0.13 0.08 94 861.2
20260506230514 20 5 0.0 12.9 0.03 0.13 0.08 94 861.3
20260506230014 20 5 3.2 22.5 0.03 0.13 0.08 94 861.0
20260506225518 20 5 6.4 27.4 0.03 0.13 0.08 94 861.0
20260506225038 21 5 8.0 14.5 0.00 0.10 0.05 93 861.1
20260506224517 22 5 1.6 6.4 0.00 0.10 0.05 94 859.8
20260506224013 22 5 0.0 4.8 0.00 0.10 0.05 93 860.0
20260506223516 22 5 0.0 6.4 0.00 0.10 0.05 93 860.2
20260506223017 22 5 1.6 6.4 0.00 0.10 0.05 93 860.1
20260506222513 22 5 0.0 9.7 0.00 0.10 0.05 93 859.8
20260506222015 22 5 3.2 14.5 0.00 0.10 0.05 92 860.1
20260506221513 22 5 6.4 14.5 0.00 0.10 0.05 92 860.0
20260506221013 23 5 4.8 16.1 0.00 0.10 0.05 91 859.9
20260506220514 23 5 6.4 16.1 0.00 0.10 0.05 91 860.1
20260506220022 23 5 1.6 8.0 0.00 0.10 0.05 89 859.8
20260506215511 23 5 1.6 4.8 0.00 0.10 0.05 88 859.7
20260506215013 22 5 0.0 6.4 0.00 0.10 0.05 89 859.6
20260506214511 22 5 3.2 6.4 0.00 0.10 0.05 89 859.8
20260506214011 22 5 0.0 6.4 0.00 0.10 0.05 89 860.2
20260506213510 22 5 0.0 6.4 0.00 0.10 0.05 90 860.3
20260506213007 23 5 1.6 4.8 0.00 0.10 0.05 89 860.5
20260506212508 22 5 0.0 1.6 0.00 0.10 0.05 87 860.4
20260506212006 22 5 0.0 1.6 0.00 0.10 0.05 89 860.5
20260506211505 22 5 0.0 0.0 0.00 0.10 0.05 90 860.7
20260506211005 22 5 0.0 0.0 0.00 0.10 0.05 91 860.8
20260506210505 22 5 0.0 0.0 0.00 0.10 0.05 92 860.9
20260506210006 22 5 0.0 0.0 0.00 0.10 0.05 93 861.0
20260506205504 22 5 0.0 0.0 0.00 0.10 0.05 93 861.0
20260506205006 21 5 0.0 3.2 0.00 0.10 0.05 92 861.0
20260506204505 21 5 0.0 6.4 0.00 0.10 0.05 92 861.0
20260506204008 21 5 3.2 6.4 0.00 0.10 0.05 92 861.1
20260506203506 21 5 3.2 4.8 0.00 0.10 0.05 92 861.1
20260506203013 21 5 1.6 4.8 0.00 0.10 0.05 93 861.2
20260506202504 21 5 0.0 3.2 0.00 0.10 0.05 94 861.2
20260506202004 21 5 0.0 3.2 0.00 0.10 0.05 94 861.3
20260506201508 21 5 0.0 3.2 0.00 0.10 0.05 94 861.4
20260506201004 21 5 0.0 0.0 0.00 0.10 0.05 94 861.4
20260506200503 21 5 0.0 0.0 0.00 0.10 0.05 94 861.4
20260506200004 21 5 0.0 0.0 0.00 0.13 0.05 94 861.4
20260506195503 21 5 0.0 0.0 0.00 0.13 0.05 94 861.5
20260506195003 21 5 0.0 0.0 0.00 0.13 0.05 94 861.6
20260506194503 21 5 0.0 0.0 0.00 0.13 0.05 94 861.5
20260506194002 21 5 0.0 4.8 0.00 0.13 0.05 94 861.7
20260506193502 21 5 1.6 4.8 0.00 0.13 0.05 94 861.6
20260506193002 21 5 0.0 4.8 0.00 0.13 0.05 95 861.7
20260506192502 21 5 0.0 4.8 0.00 0.13 0.05 95 861.7
20260506192002 20 5 0.0 0.0 0.00 0.13 0.05 95 861.7
20260506191502 20 5 0.0 3.2 0.00 0.13 0.05 95 861.9
20260506191002 20 5 0.0 3.2 0.00 0.13 0.05 95 862.0
20260506190502 20 5 0.0 0.0 0.00 0.13 0.05 95 862.0
20260506190006 20 5 0.0 3.2 0.00 0.13 0.05 95 862.0
20260506185501 20 5 0.0 3.2 0.00 0.13 0.05 94 862.1
20260506185001 20 5 0.0 3.2 0.00 0.13 0.05 94 862.2
20260506184501 20 5 0.0 3.2 0.03 0.13 0.05 94 862.2
20260506184001 20 5 0.0 1.6 0.03 0.13 0.05 93 862.2
20260506183501 21 5 0.0 1.6 0.03 0.13 0.05 94 862.2
20260506183001 21 5 0.0 1.6 0.03 0.13 0.05 93 862.2
20260506182501 21 5 0.0 0.0 0.03 0.13 0.05 93 862.2
20260506182100 21 5 0.0 1.6 0.03 0.13 0.05 93 862.2
20260506182002 21 5 0.0 3.2 0.03 0.13 0.05 93 862.2
20260506181602 21 5 0.0 3.2 0.03 0.13 0.05 93 862.2
20260506181100 21 5 0.0 1.6 0.03 0.13 0.05 92 862.2
20260506180602 21 5 0.0 1.6 0.03 0.13 0.05 92 862.3
20260506180101 21 5 0.0 4.8 0.03 0.13 0.05 92 862.3
20260506175559 22 5 0.0 4.8 0.03 0.13 0.05 91 862.3
20260506175059 22 5 0.0 6.4 0.03 0.13 0.05 90 862.3
20260506175002 22 5 0.0 6.4 0.03 0.13 0.05 90 862.4
20260506174603 22 5 1.6 6.4 0.03 0.13 0.05 91 862.4
20260506174100 22 5 1.6 6.4 0.00 0.10 0.03 91 862.4
20260506173603 22 5 0.0 8.0 0.00 0.10 0.03 91 862.5
20260506173115 22 5 0.0 6.4 0.00 0.10 0.03 91 862.5
20260506172602 22 5 0.0 6.4 0.00 0.10 0.03 91 862.4
20260506172059 22 5 0.0 4.8 0.00 0.10 0.03 90 862.5
20260506171601 22 5 0.0 4.8 0.00 0.10 0.03 91 862.5
20260506171059 22 5 0.0 6.4 0.00 0.10 0.03 90 862.4
20260506170602 22 5 1.6 6.4 0.00 0.10 0.03 90 862.4
20260506170058 22 5 0.0 6.4 0.00 0.10 0.03 90 862.3
20260506165558 22 5 1.6 8.0 0.00 0.10 0.03 89 862.4
20260506165058 22 5 0.0 9.7 0.00 0.10 0.03 89 862.3
20260506164558 22 5 0.0 9.7 0.00 0.10 0.03 89 862.4
20260506164057 22 5 3.2 9.7 0.00 0.10 0.03 88 862.4
20260506163557 23 5 4.8 9.7 0.00 0.10 0.03 87 862.4
20260506163057 23 5 4.8 8.0 0.00 0.10 0.03 86 862.4
20260506162557 23 5 3.2 14.5 0.00 0.10 0.03 85 862.4
20260506162058 23 5 3.2 14.5 0.00 0.10 0.03 84 862.5
20260506161604 23 5 3.2 12.9 0.00 0.10 0.03 85 862.4
20260506161054 23 5 1.6 6.4 0.00 0.10 0.03 85 862.5
20260506160553 22 5 3.2 12.9 0.00 0.10 0.03 85 862.4
20260506160055 22 5 3.2 12.9 0.00 0.10 0.03 86 862.5
20260506155553 22 5 0.0 8.0 0.00 0.10 0.03 85 862.4
20260506155053 22 5 3.2 8.0 0.00 0.10 0.03 87 862.5
20260506154549 22 5 1.6 8.0 0.00 0.10 0.03 88 862.6
20260506154049 22 5 3.2 16.1 0.00 0.10 0.03 89 862.5
20260506153547 22 5 6.4 16.1 0.00 0.10 0.03 90 862.6
20260506153044 21 5 1.6 8.0 0.00 0.10 0.03 92 862.5
20260506152543 21 5 1.6 8.0 0.00 0.10 0.03 93 862.5
20260506152043 20 5 0.0 0.0 0.00 0.10 0.03 95 862.5
20260506151558 20 5 0.0 0.0 0.00 0.10 0.03 96 862.5
20260506151041 20 5 0.0 3.2 0.00 0.10 0.03 96 862.5
20260506150538 20 5 1.6 3.2 0.00 0.10 0.03 96 862.4
20260506150037 19 5 1.6 3.2 0.00 0.10 0.03 96 862.4
20260506145536 19 5 1.6 3.2 0.00 0.13 0.03 96 862.4
20260506145034 19 5 1.6 3.2 0.00 0.13 0.03 96 862.4
20260506144533 19 5 1.6 3.2 0.00 0.13 0.03 96 862.3
20260506144041 18 5 1.6 3.2 0.00 0.13 0.03 96 862.3
20260506143531 18 5 1.6 4.8 0.00 0.13 0.03 96 862.3
20260506143042 18 5 1.6 4.8 0.00 0.13 0.03 96 862.3
20260506142528 18 5 3.2 4.8 0.00 0.13 0.03 96 862.3
20260506142028 18 5 1.6 4.8 0.00 0.13 0.03 96 862.3
20260506141527 18 5 3.2 4.8 0.00 0.13 0.03 96 862.2
20260506141026 18 5 3.2 4.8 0.00 0.13 0.03 96 862.2
20260506140525 17 5 3.2 4.8 0.00 0.13 0.03 96 862.1
20260506140030 17 5 3.2 4.8 0.00 0.13 0.03 96 862.1
20260506135522 17 5 3.2 4.8 0.00 0.13 0.03 96 862.1
20260506135020 17 5 3.2 4.8 0.00 0.13 0.03 96 862.1
20260506134520 17 5 3.2 4.8 0.00 0.13 0.03 96 862.1
20260506134018 17 5 3.2 6.4 0.00 0.13 0.03 96 862.1
20260506133516 17 5 3.2 6.4 0.00 0.13 0.03 96 862.0
20260506133018 17 5 3.2 4.8 0.00 0.13 0.03 96 862.0
20260506132518 17 5 3.2 4.8 0.00 0.13 0.03 96 861.9
20260506132014 16 5 3.2 4.8 0.00 0.13 0.03 96 861.9
20260506131517 16 5 3.2 8.0 0.00 0.13 0.03 96 861.9
20260506131015 16 5 3.2 8.0 0.00 0.13 0.03 96 862.0
20260506130515 16 5 3.2 6.4 0.00 0.13 0.03 96 862.0
20260506130013 16 5 3.2 6.4 0.00 0.13 0.03 96 862.0
20260506125511 16 5 3.2 6.4 0.00 0.13 0.03 96 862.0
20260506125014 16 5 3.2 6.4 0.00 0.13 0.03 96 862.0
20260506124509 16 5 4.8 6.4 0.00 0.13 0.03 96 861.9
20260506124009 16 5 4.8 6.4 0.00 0.13 0.03 96 861.9
20260506123508 16 5 4.8 6.4 0.00 0.13 0.03 96 861.8
20260506123008 16 5 4.8 6.4 0.00 0.13 0.03 96 861.8
20260506122507 16 5 4.8 6.4 0.00 0.13 0.03 96 861.7
20260506122011 16 5 3.2 6.4 0.00 0.13 0.03 96 861.7
20260506121506 16 5 4.8 6.4 0.00 0.13 0.03 96 861.7
20260506121005 16 5 4.8 6.4 0.00 0.13 0.03 96 861.6
20260506120507 16 5 4.8 6.4 0.03 0.13 0.03 96 861.5
20260506120004 16 5 4.8 6.4 0.03 0.13 0.03 96 861.5
20260506115503 16 5 3.2 6.4 0.03 0.13 0.03 96 861.5
20260506115001 16 5 4.8 6.4 0.03 0.13 0.03 96 861.4
20260506114502 16 5 4.8 6.4 0.03 0.13 0.03 96 861.3
20260506114003 16 5 4.8 6.4 0.03 0.13 0.03 96 861.3
20260506113502 16 5 4.8 6.4 0.03 0.13 0.03 96 861.3
20260506113001 16 5 4.8 6.4 0.03 0.13 0.03 96 861.3
20260506112501 16 5 4.8 6.4 0.03 0.13 0.03 96 861.3
20260506112002 16 5 4.8 6.4 0.03 0.13 0.03 96 861.3
20260506111501 16 5 3.2 6.4 0.03 0.13 0.03 96 861.2
20260506111002 16 5 3.2 6.4 0.03 0.13 0.03 96 861.1
20260506110502 16 5 3.2 4.8 0.00 0.10 0.00 96 861.1
20260506110104 16 5 3.2 4.8 0.00 0.10 0.00 96 861.1
20260506105600 16 5 3.2 4.8 0.00 0.10 0.00 96 861.1
20260506105059 16 5 3.2 4.8 0.00 0.10 0.00 96 861.0
20260506104616 16 5 3.2 6.4 0.00 0.10 0.00 96 861.0
20260506104059 16 5 3.2 6.4 0.00 0.10 0.00 95 861.0
20260506103558 16 5 4.8 6.4 0.00 0.10 0.00 95 861.0
20260506103058 16 5 3.2 6.4 0.00 0.10 0.00 96 861.0
20260506102558 16 5 4.8 6.4 0.00 0.10 0.00 96 861.0
20260506102058 16 5 3.2 6.4 0.00 0.10 0.00 96 860.9
20260506101604 16 5 3.2 4.8 0.00 0.10 0.00 96 860.8
20260506101057 16 5 3.2 6.4 0.00 0.10 0.00 96 860.7
20260506100559 16 5 3.2 6.4 0.00 0.10 0.00 96 860.7
20260506100058 16 5 3.2 6.4 0.00 0.10 0.00 96 860.7
20260506095559 16 5 4.8 6.4 0.00 0.13 0.00 96 860.7
20260506095056 16 5 4.8 6.4 0.00 0.13 0.00 96 860.8
20260506094600 16 5 4.8 8.0 0.00 0.13 0.00 96 860.8
20260506094057 16 5 4.8 8.0 0.00 0.13 0.00 96 860.8
20260506093556 16 5 4.8 8.0 0.00 0.13 0.00 96 860.8
20260506093103 16 5 4.8 8.0 0.00 0.13 0.00 96 860.8
20260506092555 16 5 4.8 8.0 0.00 0.13 0.00 96 860.8
20260506092055 16 5 4.8 8.0 0.00 0.13 0.00 96 860.8
20260506091555 16 5 4.8 6.4 0.00 0.13 0.00 96 860.8
20260506091055 16 5 4.8 6.4 0.00 0.13 0.00 96 860.8
20260506090557 16 5 4.8 6.4 0.00 0.13 0.00 96 860.8
20260506090053 16 5 4.8 6.4 0.00 0.13 0.00 96 860.9
20260506085552 16 5 4.8 6.4 0.00 0.13 0.00 96 860.9
20260506085053 16 5 3.2 4.8 0.00 0.13 0.00 96 861.0
20260506084552 16 5 3.2 4.8 0.00 0.13 0.00 96 861.1
20260506084052 16 5 3.2 6.4 0.00 0.13 0.00 96 861.1
20260506083550 16 5 1.6 6.4 0.00 0.13 0.00 96 861.2
20260506083050 16 5 1.6 4.8 0.00 0.13 0.00 96 861.3
20260506082551 16 5 1.6 4.8 0.00 0.13 0.00 96 861.3
20260506082053 16 5 3.2 6.4 0.00 0.13 0.00 96 861.3
20260506081550 16 5 3.2 6.4 0.00 0.13 0.00 96 861.2
20260506081049 16 5 3.2 6.4 0.00 0.13 0.00 96 861.3
20260506080548 16 5 3.2 4.8 0.00 0.13 0.00 96 861.3
20260506073047 16 5 1.6 4.8 0.00 0.13 0.00 96 861.7
20260506072544 16 5 1.6 4.8 0.00 0.13 0.00 96 861.8
20260506072048 16 5 1.6 4.8 0.00 0.13 0.00 96 861.8
20260506071600 16 5 3.2 4.8 0.00 0.13 0.00 96 861.8
20260506071045 16 5 3.2 4.8 0.00 0.13 0.00 96 861.8
20260506070543 16 5 1.6 4.8 0.00 0.13 0.00 96 861.9
20260506062041 16 5 1.6 4.8 0.03 0.13 0.00 95 861.9
20260506061540 16 5 1.6 4.8 0.03 0.13 0.00 95 861.9
20260506061039 16 5 3.2 4.8 0.03 0.13 0.00 95 862.0
20260506060539 17 5 3.2 6.4 0.03 0.13 0.00 95 862.0